Regional Weather Roundup
Issued by NWS

Home | Current Version | Previous Version | Text Only | Print | Product List | Glossary On
Versions: 1 2 3 4 5 6 7 8 9 10 11 12 13 14 15 16 17 18 19 20 21 22 23 24 25 26 27 28 29 30 31 32 33 34 35 36 37 38 39 40 41 42 43 44 45 46 47 48 49 50
782
ASUS44 KLIX 221413
RWRLA
LOUISIANA WEATHER ROUNDUP
NATIONAL WEATHER SERVICE NEW ORLEANS LA
900 AM CDT TUE AUG 22 2017

NOTE: "FAIR" INDICATES FEW OR NO CLOUDS BELOW 12,000 FEET WITH NO
      SIGNIFICANT WEATHER AND/OR OBSTRUCTIONS TO VISIBILITY.
      SKY/WX - SKY CONDITION AND SIGNIFICANT WEATHER.
      TMP - AIR TEMPERATURE.    DP   - DEWPOINT TEMPERATURE.
      RH  - RELATIVE HUMIDITY.  PRES - PRESSURE.
      HX  - HEAT INDEX.         WCI  - WIND CHILL INDEX.

*  THESE STATIONS ARE NOT NWS OR FAA STATIONS AND ARE NOT UNDER
   NWS QUALITY CONTROL.

LAZ040-048-061>063-065-066-069-221500-
SOUTHEAST LOUISIANA

CITY           SKY/WX    TMP DP  RH WIND       PRES   REMARKS
N.O. INTL ARPT PTSUNNY   83  78  85 NE6       30.08R
N.O. LAKEFRONT MOSUNNY   85  78  80 NE10      30.08R HX  96
N.O. DOWNTOWN* FAIR      85  77  77 N6        30.09R HX  95
RESERVE*       FAIR      86  79  80 NE3       30.08S HX 100
SLIDELL        SUNNY     81  76  84 N5        30.08R
BATON ROUGE    SUNNY     80  75  84 E5        30.08R
BOOTHVILLE     MOSUNNY   87  78  74 CALM      30.08R HX 100
BELLE CHASSE   MOSUNNY   82  75  79 NE5       30.07S
BOGALUSA*      FAIR      80  74  81 NE3       30.12R
GALLIANO*      MOSUNNY   85  75  73 N6        30.07S
NEW ROADS*     FAIR      81  75  83 CALM      30.09R
GONZALES*      FAIR      82  77  83 CALM      30.07S
HAMMOND*       SUNNY     81  72  74 CALM      30.09R
HOUMA*         MOSUNNY   84  79  84 NE5       30.08R HX  96
PORT FOURCHON* SUNNY     86  77  74 E9        30.07R HX  97

$$

LAZ041-044-053-054-221500-
SOUTHWEST LOUISIANA

CITY           SKY/WX    TMP DP  RH WIND       PRES   REMARKS
LAKE CHARLES   SUNNY     83  75  77 VRB3      30.07R
LAFAYETTE      SUNNY     82  77  84 VRB3      30.08R
PATTERSON      SUNNY     83  78  85 NE6       30.08R
SALT POINT       N/A     84  77  79 VRB3      30.05R
NEW IBERIA     SUNNY     82  75  79 CALM      30.08R
CHENAULT AIRPK MOSUNNY   81  75  83 E3        30.08R

$$

LAZ027-028-221500-
CENTRAL LOUISIANA

CITY           SKY/WX    TMP DP  RH WIND       PRES   REMARKS
FORT POLK      SUNNY     81  74  79 CALM      30.08R
ALEXANDRIA INT   N/A     80  74  81 CALM      30.07R
ALEXANDRIA     SUNNY     81  75  82 CALM      30.09R

$$

LAZ001-002-221500-
NORTHWEST LOUISIANA

CITY           SKY/WX    TMP DP  RH WIND       PRES   REMARKS
SHREVEPORT     SUNNY     83  76  79 NW8       30.07R
BARKSDALE AFB  SUNNY     83  74  73 NW6       30.07R
DTN SHREVEPORT SUNNY     83  74  74 VRB5      30.07R

$$

LAZ014-016-221500-
NORTHEAST LOUISIANA

CITY           SKY/WX    TMP DP  RH WIND       PRES   REMARKS
MONROE         SUNNY     79  74  84 SW5       30.09R
TALLULAH       NOT AVBL

$$





USA.gov is the U.S. government's official web portal to all federal, state and local government web resources and services.